Flag for Germany Weather past 2 weeks in Kempen, North Rhine-Westphalia, Germany

Now
81 °F

Clear.


Feels Like: 80 °F
Forecast: 65 / 90 °F
Wind: 5 mph from North

Location: Monchengladbach Airport

Current Time: Jun 30, 2015 at 3:31:21 PM

Latest Report: Jun 30, 2015 at 2:50 PM


Visibility: 10 mi

Pressure: 30.15 "Hg

Humidity: 32%

Dew point: 48 °F

Location of KempenLocation

Historic Weather in Kempen — Graph

°F

Kempen temperature yesterday

Maximum temperature yesterday: 77 °F (at 3:50 PM)
Minimum temperature yesterday: 66 °F (at 7:50 AM)
Average temperature yesterday: 72 °F

Past Weeks' High & Low Weather Summary

 TemperatureHumidityPressure
High81 °F (Jun 30, 1:50 PM)100% (Jun 18, 7:50 AM)30.30 "Hg (Jun 18, 7:50 AM)
Low50 °F (Jun 22, 8:20 PM)35% (Jun 15, 7:20 PM)29.71 "Hg (Jun 22, 6:20 PM)
Average65 °F65%30.08 "Hg
* Reported Jun 15 1:20 PM — Jun 30 1:50 PM, Kempen, Weather by CustomWeather, © 2015

Note: Actual official high and low records may vary slightly from our data, if they occured in-between our weather recording intervals... More about our weather records

Advertising

Kempen weather history for previous 24 hours

 ConditionsComfort  
Time TempWeatherWind HumidityBarometerVisibility
1:50 PM
Tue, Jun 30
81 °FSunny.3 mph37%30.15 "Hg10 mi
1:20 PM77 °FSunny.3 mph42%30.15 "Hg10 mi
12:50 PM77 °FSunny.2 mph42%30.18 "Hg10 mi
12:20 PM77 °FSunny.5 mph47%30.18 "Hg10 mi
11:50 AM75 °FSunny.3 mph57%30.18 "Hg10 mi
11:20 AM75 °FSunny.3 mph57%30.18 "Hg10 mi
10:50 AM73 °FSunny.3 mph57%30.18 "Hg10 mi
10:20 AM73 °FSunny.2 mph61%30.18 "Hg10 mi
9:50 AM70 °FSunny.2 mph69%30.18 "Hg10 mi
9:20 AM68 °FSunny.2 mph73%30.18 "Hg10 mi
8:50 AM68 °FSunny.3 mph73%30.18 "Hg10 mi
8:20 AM66 °FSunny.1 mph78%30.18 "Hg10 mi
7:50 AM64 °FSunny.1 mph88%30.18 "Hg10 mi
8:20 PM
Mon, Jun 29
73 °FClear.6 mph50%30.15 "Hg10 mi
7:50 PM75 °FClear.6 mph47%30.15 "Hg10 mi
7:20 PM75 °FClear.7 mph44%30.15 "Hg10 mi
6:50 PM75 °FClear.7 mph47%30.15 "Hg10 mi
6:20 PM75 °FPassing clouds.9 mph44%30.15 "HgN/A
5:50 PM77 °FPassing clouds.8 mph42%30.15 "HgN/A
5:20 PM77 °FPassing clouds.7 mph42%30.15 "HgN/A
4:50 PM77 °FPassing clouds.8 mph44%30.15 "HgN/A
4:20 PM77 °FPassing clouds.10 mph44%30.15 "HgN/A
3:50 PM77 °FPassing clouds.9 mph44%30.15 "HgN/A
3:20 PM75 °FPassing clouds.8 mph44%30.15 "HgN/A
Weather by CustomWeather, © 2015

See weather overviewHow to use our weather pages